Flag for Romania Weather past 2 weeks in Cluj-Napoca, Romania

Now
52 °F

Passing clouds.


Feels Like: 49 °F
Forecast: 35 / 54 °F
Wind: 7 mph from Southeast

Location: Cluj Airport-Napoca

Current Time: Feb 27, 2015 at 3:59:47 PM

Latest Report: Feb 27, 2015 at 3:30 PM


Visibility: N/A

Pressure: 29.92 "Hg

Humidity: 67%

Dew point: 41 °F

Location of Cluj-NapocaLocation

Historic Weather in Cluj-Napoca — Graph

°F

Cluj-Napoca temperature yesterday

Maximum temperature yesterday: 52 °F (at 2:30 PM)
Minimum temperature yesterday: 41 °F (at 6:00 AM)
Average temperature yesterday: 46 °F

Past Weeks' High & Low Weather Summary

 TemperatureHumidityPressure
High57 °F (Feb 24, 2:00 PM)100% (Feb 12, 11:00 PM)30.69 "Hg (Feb 12, 11:00 PM)
Low14 °F (Feb 18, 5:30 AM)24% (Feb 18, 2:30 PM)29.65 "Hg (Feb 24, 4:00 PM)
Average35 °F79%30.13 "Hg
* Reported Feb 12 2:00 PM — Feb 27 2:30 PM, Cluj-Napoca, Weather by CustomWeather, © 2015

Note: Actual official high and low records may vary slightly from our data, if they occured in-between our weather recording intervals... More about our weather records

Advertising

Cluj-Napoca weather history for previous 24 hours

 ConditionsComfort  
Time TempWeatherWind HumidityBarometerVisibility
2:30 PM
Fri, Feb 27
52 °FPassing clouds.8 mph67%29.95 "HgN/A
2:00 PM50 °FScattered clouds.7 mph76%29.95 "HgN/A
1:30 PM50 °FScattered clouds.9 mph71%29.95 "HgN/A
1:00 PM48 °FScattered clouds.9 mph82%29.98 "HgN/A
12:30 PM48 °FScattered clouds.10 mph82%29.98 "HgN/A
12:00 PM46 °FScattered clouds.8 mph87%30.01 "HgN/A
11:30 AM46 °FScattered clouds.7 mph93%30.01 "HgN/A
10:30 AM45 °FMore clouds than sun.5 mph93%30.01 "Hg4 mi
10:00 AM43 °FMore clouds than sun.5 mph100%30.01 "Hg4 mi
9:30 AM43 °FMore clouds than sun.5 mph100%30.01 "Hg4 mi
9:00 AM43 °FLow clouds.8 mph100%30.01 "Hg4 mi
8:30 AM43 °FFog.5 mph100%30.01 "Hg3 mi
8:00 AM43 °FDrizzle. Fog.6 mph100%30.01 "Hg3 mi
7:30 AM43 °FOvercast.5 mph100%30.01 "Hg4 mi
7:00 AM43 °FOvercast.5 mph100%30.01 "Hg4 mi
6:30 AM43 °FOvercast.6 mph100%30.01 "HgN/A
5:30 AM43 °FMostly cloudy.3 mph100%30.01 "HgN/A
5:00 AM43 °FLow clouds.5 mph100%30.01 "HgN/A
4:00 AM43 °FMostly cloudy.5 mph100%30.01 "HgN/A
3:00 AM43 °FOvercast.7 mph100%30.01 "HgN/A
2:00 AM43 °FMostly cloudy.2 mph100%30.04 "HgN/A
1:00 AM45 °FMostly cloudy.2 mph100%30.04 "HgN/A
12:00 AM45 °FMostly cloudy.No wind100%30.04 "HgN/A
11:30 PM
Thu, Feb 26
45 °FMostly cloudy.No wind100%30.04 "HgN/A
11:00 PM46 °FMostly cloudy.2 mph100%30.04 "HgN/A
10:30 PM46 °FPartly cloudy.3 mph100%30.04 "HgN/A
10:00 PM46 °FPartly cloudy.3 mph100%30.04 "HgN/A
9:30 PM46 °FLight rain. Mostly cloudy.6 mph100%30.04 "HgN/A
9:00 PM46 °FLight rain. Mostly cloudy.6 mph100%30.01 "HgN/A
8:30 PM46 °FLight rain. Mostly cloudy.5 mph100%30.01 "HgN/A
8:00 PM46 °FMostly cloudy.5 mph100%30.01 "HgN/A
7:30 PM46 °FMostly cloudy.5 mph100%30.01 "HgN/A
7:00 PM48 °FMostly cloudy.6 mph94%30.01 "HgN/A
6:30 PM48 °FLight rain. Mostly cloudy.7 mph94%30.01 "HgN/A
6:00 PM48 °FLight rain. Mostly cloudy.8 mph94%29.98 "HgN/A
5:30 PM50 °FCloudy.6 mph88%29.98 "HgN/A
5:00 PM50 °FMostly cloudy.2 mph82%29.98 "HgN/A
4:30 PM50 °FLight rain. Mostly cloudy.1 mph76%29.98 "HgN/A
4:00 PM50 °FMostly cloudy.5 mph76%29.95 "HgN/A
3:30 PM52 °FBroken clouds.3 mph72%29.98 "HgN/A
3:00 PM52 °FBroken clouds.3 mph72%29.95 "HgN/A
Weather by CustomWeather, © 2015

See weather overviewHow to use our weather pages